Simultaneous Nadir Overpasses (SNOs) Predictions

Prediction of SNOs between GOES-15 and NOAA-20 Satellite Orbit:

Table of predicted SNOs for the next 14.0 days since TLE Epoch: 1/24/2020
Index Date Time (GOES-15) GOES-15 Lat,Lon NOAA-20 Lat,Lon Distance(km) Time Diff (sec)
1 01/25/2020 22:05:00 0.04,-128.36 -0.23,-129.64 145.00 80
2 01/26/2020 21:43:36 0.04,-128.34 0.75,-125.10 369.19 80
3 01/28/2020 10:05:24 -0.04,-128.31 0.45,-130.37 235.28 80
4 01/29/2020 09:49:21 -0.04,-128.29 -0.60,-125.84 278.98 80
5 01/30/2020 22:11:18 0.04,-128.26 -0.59,-131.15 328.35 80
6 01/31/2020 21:49:54 0.04,-128.24 0.39,-126.61 185.48 80
7 02/02/2020 10:11:42 -0.04,-128.20 0.81,-131.88 420.03 80
8 02/03/2020 09:55:38 -0.03,-128.17 -0.24,-127.35 93.60 80
9 02/05/2020 21:58:51 0.02,-128.11 0.04,-128.12 2.76 80




NCC Satellite Simultaneous Nadir Overpasses (SNOs) Prediction Service
